Meath Environmental Platform

Observations

Time Sensor AQI SAQ Temp °C Hum % Pres Pa CO μg/m³ H₂S μg/m³ NO μg/m³ NO₂ μg/m³ O₃ μg/m³ SO₂ μg/m³ CO₂e PPM VOC PPM PM1 μg/m³ PM2.5 μg/m³ PM4 μg/m³ PM10 μg/m³ TPS µm
Tuesday 11 August 2026
21:05 Trim Market St 3 25.5 41 65,552 0 12.7 1.06 43.11 52.45 0 2.14 4.94 5.13
21:04 Trim Patrick St 3 25 44 69,076 0 31.34 1.04 56.39 47.25 14.12 6.29 12.19 13.41
21:04 Trim Market St 3 25.6 41 65,600 0 12 1.04 44.08 50.47 0 0.71 4.94 5.13
21:03 Trim Patrick St 3 25.1 43 69,082 0 31.18 1.09 47.19 45.9 14.07 5.43 10.77 11.84
21:03 Trim Market St 3 25.6 41 65,627 0 11.34 1.04 38.05 52.21 0 2.85 5.48 5.93
21:02 Trim Patrick St 3 25.1 44 69,086 0 31.39 1.04 50.79 42.27 14.33 3.71 9.13 10.04
21:02 Trim Market St 3 25.7 41 65,631 0 12.21 1.02 41.97 53.25 0 2.14 5.49 5.93
21:01 Trim Patrick St 3 25.2 44 69,098 0 31.63 1 54.78 46.52 14.11 4.57 10.65 11.71
21:01 Trim Market St 3 25.7 41 65,665 0 11.57 1.02 33.22 56.49 0 2.85 5.49 6.73
21:00 Trim Patrick St 3 25.3 44 69,076 0 32.85 1.01 52.33 46.87 14.89 5.43 11.46 12.61
21:00 Trim Market St 3 25.8 40 65,678 0 13.25 1 39.75 50.25 0 3.56 6.03 6.72
20:59 Trim Patrick St 3 25.3 44 69,084 0 32.69 1.03 50.06 44.93 15.05 7.14 12.26 13.49
20:59 Trim Market St 3 25.8 40 65,698 0 14.9 1.01 44.65 48.93 0 1.43 4.46 4.9
20:58 Trim Patrick St 3 25.4 43 69,094 0 32.99 1.01 51.06 45.4 14.53 5.43 10.72 11.8
20:57 Trim Patrick St 3 25.5 40 69,100 0 31.55 1.14 53.48 48.87 14.64 5.43 10.99 12.09
20:57 Trim Market St 3 25.9 40 65,760 0 9.52 0.99 37.35 51.15 0 2.85 5 5.11
20:56 Trim Patrick St 3 25.6 41 69,112 0 31.97 1.07 49.81 47.83 14.88 3.71 9.36 10.29
20:55 Trim Patrick St 3 25.6 42 69,100 0 32.61 1.02 51.52 49.76 15.13 6.29 12.42 13.66
20:54 Trim Patrick St 3 25.7 42 69,108 0 32.45 0.99 44.47 46.94 15.23 5.43 10.83 11.92
20:54 Trim Market St 3 26 39 65,801 0 12.55 0.95 61.01 39.51 0 3.56 6.08 6.72